When you browse on this site, cookies collect data to enhance your experience and personalize the content and advertising you see.
Visit our Privacy Policy to learn more. By continuing to use the site, you agree to this use of cookies and data.
  • In Hungary
  • List of Countries
  • For 7 days
  • Water Temperature
  • Weather Map
  • News
  • Weather Widgets
  • user-avatar
    Login

    Hourly Weather Muhin

    Today, 24 February, Monday

    Time Temperature Precipitation Wind Pressure Humidity
    00:00 +3°C° 0 mm 7 mps 756 mmHg 80%
    01:00 +3°C° 0 mm 7 mps 756 mmHg 80%
    02:00 +3°C° 0 mm 7 mps 755 mmHg 80%
    03:00 +3°C° 0 mm 7 mps 754 mmHg 80%
    04:00 +3°C° 0 mm 7 mps 754 mmHg 81%
    05:00 +3°C° 0 mm 6 mps 753 mmHg 81%
    06:00 +3°C° 0 mm 6 mps 753 mmHg 81%
    07:00 +3°C° 0 mm 6 mps 752 mmHg 81%
    08:00 +3°C° 0 mm 6 mps 752 mmHg 81%
    09:00 +4°C° 0 mm 6 mps 752 mmHg 80%
    10:00 +4°C° 0.5 mm 7 mps 750 mmHg 80%
    11:00 +4°C° 0.5 mm 7 mps 749 mmHg 80%
    12:00 +4°C° 0.5 mm 7 mps 748 mmHg 80%
    13:00 +5°C° 0.7 mm 7 mps 747 mmHg 80%
    14:00 +5°C° 0.7 mm 7 mps 746 mmHg 80%
    15:00 +5°C° 0.7 mm 7 mps 745 mmHg 79%
    16:00 +5°C° 1.6 mm 7 mps 744 mmHg 82%
    17:00 +5°C° 1.6 mm 8 mps 743 mmHg 85%
    18:00 +5°C° 1.6 mm 8 mps 743 mmHg 88%
    19:00 +5°C° 1.5 mm 9 mps 742 mmHg 87%
    20:00 +5°C° 1.5 mm 9 mps 742 mmHg 86%
    21:00 +5°C° 1.5 mm 10 mps 741 mmHg 85%
    22:00 +3°C° 0.3 mm 11 mps 741 mmHg 80%
    23:00 +3°C° 0.3 mm 12 mps 741 mmHg 76%

    Tomorrow, 25 February, Tuesday

    Time Temperature Precipitation Wind Pressure Humidity
    00:00 +1°C° 0.3 mm 13 mps 741 mmHg 71%
    01:00 0°C° 0 mm 13 mps 741 mmHg 75%
    02:00 0°C° 0 mm 14 mps 742 mmHg 80%
    03:00 -1°C° 0 mm 14 mps 742 mmHg 84%
    04:00 -1°C° 0.1 mm 14 mps 743 mmHg 85%
    05:00 -2°C° 0.1 mm 14 mps 744 mmHg 86%
    06:00 -2°C° 0.1 mm 14 mps 745 mmHg 87%
    07:00 -2°C° 0.3 mm 13 mps 746 mmHg 89%
    08:00 -2°C° 0.3 mm 13 mps 747 mmHg 92%
    09:00 -2°C° 0.3 mm 12 mps 749 mmHg 94%
    10:00 -2°C° 0.1 mm 11 mps 750 mmHg 86%
    11:00 -1°C° 0.1 mm 11 mps 750 mmHg 78%
    12:00 0°C° 0.1 mm 10 mps 751 mmHg 70%
    13:00 +1°C° 0 mm 10 mps 752 mmHg 67%
    14:00 +1°C° 0 mm 9 mps 752 mmHg 64%
    15:00 +1°C° 0 mm 9 mps 753 mmHg 62%
    16:00 +1°C° 0 mm 8 mps 753 mmHg 62%
    17:00 +2°C° 0 mm 7 mps 754 mmHg 62%
    18:00 +1°C° 0 mm 6 mps 754 mmHg 62%
    19:00 +1°C° 0 mm 6 mps 755 mmHg 66%
    20:00 -1°C° 0 mm 6 mps 755 mmHg 70%
    21:00 -1°C° 0 mm 6 mps 755 mmHg 74%
    22:00 0°C° 0 mm 5 mps 755 mmHg 75%
    23:00 -1°C° 0 mm 5 mps 755 mmHg 75%

    Day after tomorrow, 26 February, Wednesday

    Time Temperature Precipitation Wind Pressure Humidity
    00:00 -1°C° 0 mm 5 mps 755 mmHg 75%
    01:00 -1°C° 0 mm 5 mps 755 mmHg 77%
    02:00 0°C° 0 mm 5 mps 755 mmHg 79%
    03:00 0°C° 0 mm 5 mps 755 mmHg 81%
    04:00 0°C° 0 mm 5 mps 755 mmHg 81%
    05:00 0°C° 0 mm 5 mps 755 mmHg 82%
    06:00 0°C° 0 mm 5 mps 755 mmHg 83%
    07:00 0°C° 0 mm 5 mps 755 mmHg 78%
    08:00 +1°C° 0 mm 5 mps 755 mmHg 73%
    09:00 +1°C° 0 mm 6 mps 755 mmHg 69%
    10:00 +3°C° 0 mm 5 mps 754 mmHg 61%
    11:00 +5°C° 0 mm 5 mps 754 mmHg 53%
    12:00 +7°C° 0 mm 5 mps 754 mmHg 45%
    13:00 +7°C° 0 mm 4 mps 753 mmHg 43%
    14:00 +8°C° 0 mm 4 mps 753 mmHg 40%
    15:00 +10°C° 0 mm 3 mps 752 mmHg 37%
    16:00 +9°C° 0 mm 3 mps 752 mmHg 39%
    17:00 +8°C° 0 mm 2 mps 752 mmHg 41%
    18:00 +7°C° 0 mm 2 mps 752 mmHg 43%
    19:00 +7°C° 0 mm 2 mps 752 mmHg 44%
    20:00 +7°C° 0 mm 2 mps 752 mmHg 44%
    21:00 +5°C° 0 mm 3 mps 752 mmHg 45%
    22:00 +5°C° 0 mm 3 mps 752 mmHg 47%
    23:00 +5°C° 0 mm 3 mps 752 mmHg 50%

    27 February, Thursday

    Time Temperature Precipitation Wind Pressure Humidity
    00:00 +4°C° 0 mm 3 mps 752 mmHg 53%
    01:00 +4°C° 0 mm 3 mps 752 mmHg 54%
    02:00 +4°C° 0 mm 3 mps 752 mmHg 54%
    03:00 +4°C° 0 mm 3 mps 751 mmHg 55%
    04:00 +4°C° 0 mm 3 mps 751 mmHg 55%
    05:00 +4°C° 0 mm 3 mps 751 mmHg 55%
    06:00 +5°C° 0 mm 2 mps 751 mmHg 55%
    07:00 +6°C° 0 mm 2 mps 751 mmHg 55%
    08:00 +7°C° 0 mm 2 mps 751 mmHg 55%
    09:00 +7°C° 0 mm 2 mps 751 mmHg 54%
    10:00 +9°C° 0 mm 2 mps 751 mmHg 49%
    11:00 +12°C° 0 mm 2 mps 751 mmHg 44%
    12:00 +14°C° 0 mm 2 mps 751 mmHg 39%
    13:00 +15°C° 0 mm 2 mps 750 mmHg 39%
    14:00 +16°C° 0 mm 2 mps 750 mmHg 39%
    15:00 +17°C° 0 mm 2 mps 750 mmHg 39%
    16:00 +16°C° 0 mm 2 mps 749 mmHg 43%
    17:00 +15°C° 0 mm 2 mps 749 mmHg 47%
    18:00 +14°C° 0 mm 1 mps 749 mmHg 51%
    19:00 +13°C° 0 mm 1 mps 749 mmHg 51%
    20:00 +13°C° 0 mm 2 mps 749 mmHg 52%
    21:00 +12°C° 0 mm 2 mps 749 mmHg 52%
    22:00 +12°C° 0 mm 2 mps 749 mmHg 53%
    23:00 +12°C° 0 mm 1 mps 749 mmHg 53%

    28 February, Friday

    Time Temperature Precipitation Wind Pressure Humidity
    00:00 +11°C° 0 mm 1 mps 748 mmHg 53%
    01:00 +10°C° 0 mm 2 mps 748 mmHg 54%
    02:00 +10°C° 0 mm 2 mps 747 mmHg 55%
    03:00 +9°C° 0 mm 3 mps 747 mmHg 56%
    04:00 +9°C° 0 mm 3 mps 747 mmHg 55%
    05:00 +10°C° 0 mm 3 mps 746 mmHg 54%
    06:00 +10°C° 0 mm 3 mps 746 mmHg 52%
    07:00 +10°C° 0 mm 3 mps 746 mmHg 53%
    08:00 +11°C° 0 mm 3 mps 746 mmHg 54%
    09:00 +12°C° 0 mm 3 mps 746 mmHg 55%
    10:00 +13°C° 0 mm 6 mps 746 mmHg 54%
    11:00 +13°C° 0 mm 8 mps 746 mmHg 52%
    12:00 +14°C° 0 mm 10 mps 746 mmHg 51%
    13:00 +14°C° 0 mm 10 mps 746 mmHg 54%
    14:00 +13°C° 0 mm 10 mps 746 mmHg 57%
    15:00 +12°C° 0 mm 10 mps 746 mmHg 60%
    16:00 +11°C° 0 mm 9 mps 746 mmHg 63%
    17:00 +10°C° 0 mm 8 mps 747 mmHg 67%
    18:00 +8°C° 0 mm 7 mps 747 mmHg 71%
    19:00 +6°C° 0 mm 8 mps 748 mmHg 70%
    20:00 +4°C° 0 mm 8 mps 749 mmHg 69%
    21:00 +2°C° 0 mm 8 mps 749 mmHg 68%
    22:00 +2°C° 0 mm 8 mps 750 mmHg 68%
    23:00 +1°C° 0 mm 8 mps 751 mmHg 69%

    29 February, Saturday

    Time Temperature Precipitation Wind Pressure Humidity
    00:00 +1°C° 0 mm 8 mps 751 mmHg 70%
    01:00 +2°C° 0 mm 7 mps 752 mmHg 68%
    02:00 0°C° 0 mm 7 mps 752 mmHg 66%
    03:00 -1°C° 0 mm 7 mps 753 mmHg 64%
    04:00 -1°C° 0 mm 6 mps 753 mmHg 64%
    05:00 -1°C° 0 mm 5 mps 754 mmHg 64%
    06:00 -1°C° 0 mm 4 mps 754 mmHg 65%
    07:00 0°C° 0 mm 5 mps 754 mmHg 65%
    08:00 +1°C° 0 mm 6 mps 754 mmHg 65%
    09:00 +1°C° 0 mm 6 mps 754 mmHg 65%
    10:00 +3°C° 0 mm 7 mps 754 mmHg 60%
    11:00 +4°C° 0 mm 7 mps 754 mmHg 56%
    12:00 +5°C° 0 mm 8 mps 754 mmHg 51%
    13:00 +6°C° 0 mm 8 mps 753 mmHg 52%
    14:00 +6°C° 0 mm 9 mps 753 mmHg 52%
    15:00 +6°C° 0 mm 9 mps 752 mmHg 53%
    16:00 +6°C° 0.2 mm 9 mps 753 mmHg 61%
    17:00 +5°C° 0.2 mm 9 mps 753 mmHg 68%
    18:00 +3°C° 0.2 mm 9 mps 753 mmHg 76%
    19:00 +3°C° 0.1 mm 9 mps 753 mmHg 77%
    20:00 +3°C° 0.1 mm 9 mps 754 mmHg 78%
    21:00 +2°C° 0.1 mm 9 mps 754 mmHg 79%
    22:00 +2°C° 0 mm 9 mps 754 mmHg 77%
    23:00 +2°C° 0 mm 9 mps 754 mmHg 75%
    Show more